Miscellaneous Local Product
Issued by NWS Hastings, NE

Home | Current Version | Previous Version | Graphics & Text | Print | Product List | Glossary On
Versions: 1 2 3 4 5 6 7 8 9 10 11 12 13 14 15 16 17 18 19 20 21 22 23 24 25 26 27 28 29 30 31 32 33 34 35 36 37 38 39 40 41 42 43 44 45 46 47 48 49 50
938
AXUS43 KGID 151102
MISGRI

GID CWA HOURLY WEATHER ROUNDUP
NATIONAL WEATHER SERVICE HASTINGS NE
500 AM CST SUN JAN 15 2017

NOTE: "FAIR" INDICATES FEW OR NO CLOUDS BELOW 12,000 FEET WITH NO
SIGNIFICANT WEATHER AND/OR OBSTRUCTIONS TO VISIBILITY.

...SOUTH CENTRAL NEBRASKA...

CITY           SKY/WX    TMP DP  RH WIND       PRES   REMARKS
GRAND ISLAND   CLOUDY    28  21  75 E3        30.30F
HASTINGS       CLOUDY    29  21  72 CALM      30.30F
KEARNEY        CLOUDY    27  19  74 CALM      30.28S
ORD            CLOUDY    23  18  81 CALM      30.27F
YORK           CLOUDY    28  18  64 CALM      30.32F
AURORA         CLOUDY    29  19  66 CALM      30.30F
LEXINGTON      CLOUDY    28  23  82 CALM      30.25F
HOLDREGE       CLOUDY    30  16  56 S5        30.26F WCI  25
HEBRON         MIX PCPN  30  24  78 CALM      30.33S

...NEBRASKA PANHANDLE...

CITY           SKY/WX    TMP DP  RH WIND       PRES   REMARKS
CHADRON        CLOUDY     7   4  87 SW5       30.19F WCI  -2
ALLIANCE       CLOUDY    14  10  84 CALM      30.16F
SCOTTSBLUFF    CLOUDY    17  13  84 N3        30.16F
SIDNEY         CLOUDY    25  20  81 NW6       30.14F WCI  18

...WESTERN AND NORTH CENTRAL NEBRASKA...

CITY           SKY/WX    TMP DP  RH WIND       PRES   REMARKS
VALENTINE      PTCLDY    18  14  84 SW9       30.21F WCI   7
AINSWORTH      CLEAR     16  14  90 SW5       30.22F WCI   9
ONEILL         CLOUDY    17  15  91 S3        30.28S
BROKEN BOW     CLOUDY    22  20  92 CALM      30.24S
IMPERIAL       CLOUDY    19  15  84 CALM      30.20S
NORTH PLATTE   CLOUDY    18  15  88 SE5       30.21F WCI  11
MCCOOK         CLOUDY    30  20  66 E3        30.24S

...EASTERN NEBRASKA...

CITY           SKY/WX    TMP DP  RH WIND       PRES   REMARKS
NORFOLK        CLOUDY    19  15  84 CALM      30.31F
SO SIOUX CITY  CLOUDY    15  12  88 E3        30.36F
TEKAMAH        CLOUDY    26  21  81 CALM      30.37F
COLUMBUS       CLOUDY    28  21  74 CALM      30.34S
ALBION         CLOUDY    23  19  85 SE3       30.30F
OMAHA EPPLEY   CLOUDY    29  20  69 CALM      30.37F
OFFUTT AFB     CLOUDY    30  19  64 CALM      30.36F
MILLARD        CLOUDY    32  19  58 CALM      30.37S
LINCOLN        CLOUDY    30  21  69 CALM      30.37S
NEBRASKA CITY  CLOUDY    29  18  63 CALM      30.36F
BEATRICE       MIX PCPN  31  23  71 CALM      30.34F
FALLS CITY     CLOUDY    30  22  72 CALM      30.37F

...NORTHERN KANSAS...

CITY           SKY/WX    TMP DP  RH WIND       PRES   REMARKS
GOODLAND       CLOUDY    31  26  82 SE3       30.17F
HILL CITY      CLOUDY    29  29 100 SE5       30.28S FOG     WCI  24
NORTON         CLOUDY    30  21  69 SE7       30.25S WCI  23
PHILLIPSBURG   CLOUDY    30  25  80 SE5       30.31R WCI  25
SMITH CENTER   MIX PCPN  27  27 100 CALM      30.31S
HAYS           MIX PCPN  28  26  92 SE7       30.30F WCI  21
RUSSELL        MIX PCPN  28  24  85 CALM      30.30F
CONCORDIA      CLOUDY    29  27  92 E5        30.32S WCI  24
SALINA           N/A    N/A N/A N/A MISG        N/A
TOPEKA         FRZ RAIN  31  27  85 E7        30.36F FOG     WCI  24



USA.gov is the U.S. government's official web portal to all federal, state and local government web resources and services.